[[{"header":{"parameterUnit":"m.s-1","parameterCategory":1,"la1":30.2991,"la2":30.254,"lo1":-89.0895,"lo2":-89.0444,"dy":0.0017,"dx":0.0017,"nx":28,"ny":28,"refTime":"2024-03-29T03:00:00:Z","depth":0,"parameterNumber":2,"parameterNumberName":"U-component_of_WINDS"},"data":[0,0,0,0,0,0,0,0,0,0,0,0,0,0,0,0,0,0,0,0,0,0,0,0,0,0,0,0,0,0,0,0,0,0,0,0,0,0,0,0,0,0,0,0,0,0,0,0,0,0,0,0,0,0,0,0,0,0,-4.3541,-4.3541,0,-4.3534,-4.3534,-4.3534,-4.344,-4.3438,-4.3435,-4.3433,-4.3426,-4.3428,-4.343,0,0,0,0,0,0,0,0,0,0,0,0,0,-4.3478,-4.3479,-4.3541,-4.3541,-4.3541,-4.3534,-4.3534,-4.3534,-4.3441,-4.3438,-4.3435,-4.3432,-4.3426,-4.3428,-4.343,0,0,0,0,0,0,0,0,0,0,0,0,0,-4.3491,-4.348,-4.3541,-4.3494,-4.349,-4.3534,-4.3534,-4.3534,-4.3441,-4.3438,-4.3434,-4.3431,-4.3425,-4.3428,-4.3431,-4.352,0,0,-4.344,-4.3441,0,0,0,0,0,0,0,0,-4.3491,-4.3494,-4.3501,-4.3497,-4.3492,-4.3484,-4.3509,-4.3529,-4.3442,-4.346,-4.3433,-4.3429,-4.3448,-4.3449,-4.3456,-4.352,-4.352,-4.344,-4.3442,-4.3443,-4.3444,0,0,0,0,0,0,0,-4.349,-4.3494,-4.3538,-4.3501,-4.3496,-4.3474,-4.3472,-4.3512,-4.3474,-4.3458,-4.3451,-4.3451,-4.3445,-4.3453,-4.3455,-4.3519,-4.344,-4.3443,-4.3445,-4.3446,-4.3659,-4.3662,0,0,0,0,0,0,-4.3495,-4.3494,-4.3539,-4.3538,-4.3483,-4.3478,-4.3476,-4.3491,-4.3473,-4.3467,-4.3454,-4.3447,-4.345,-4.3451,-4.3454,-4.3558,-4.3443,-4.3446,-4.3448,-4.3655,-4.3659,-4.3664,0,0,0,0,0,0,-4.3494,-4.35,-4.3539,-4.3514,-4.3517,-4.3483,-4.35,-4.3492,-4.3499,-4.3471,-4.3464,-4.3469,-4.3447,-4.345,-4.3505,-4.3556,-4.3447,-4.345,-4.365,-4.3656,-4.3661,-4.3766,0,0,0,0,0,0,-4.3493,-4.35,-4.3533,-4.3515,-4.3519,-4.3589,-4.3503,-4.3495,-4.3505,-4.3495,-4.3482,-4.3477,-4.3444,-4.3501,-4.3508,-4.3559,-4.3453,-4.3645,-4.3653,-4.366,-4.3758,-4.3775,-4.3789,0,0,0,0,0,-4.3491,-4.3563,-4.3535,-4.3541,-4.3559,-4.3592,-4.3594,-4.3555,-4.3509,-4.3542,-4.3525,-4.3477,-4.3551,-4.3507,-4.3514,-4.3567,-4.3642,-4.3651,-4.3659,-4.3751,-4.3772,-4.3789,0,0,0,0,0,0,-4.3587,-4.3559,-4.3529,-4.3597,-4.3598,-4.3576,-4.3616,-4.3578,-4.3591,-4.3582,-4.3533,-4.3531,-4.3594,-4.3586,-4.3538,-4.3654,-4.3588,-4.3599,-4.3656,-4.3675,-4.369,-4.369,-4.3455,0,0,0,0,0,-4.3616,-4.3645,-4.362,-4.3682,-4.3684,-4.3651,-4.3664,-4.3634,-4.3633,-4.3633,-4.3618,-4.3619,-4.3643,-4.3659,-4.3678,-4.3758,-4.3754,-4.3798,-4.3814,-4.3827,-4.3835,-4.3878,-4.3897,-4.3692,-4.3692,-4.3692,0,0,-4.3676,-4.3665,-4.3686,-4.3701,-4.3698,-4.373,-4.3652,-4.3688,-4.3711,-4.3638,-4.3688,-4.3679,-4.3677,-4.3745,-4.3774,-4.374,-4.3892,-4.3838,-4.3848,-4.385,-4.3888,-4.3908,-4.3925,-4.3698,-4.3697,-4.3696,0,0,-4.3801,-4.3796,-4.3848,-4.3847,-4.3844,-4.3822,-4.3835,-4.382,-4.3811,-4.3861,-4.3808,-4.3836,-4.3877,-4.3878,-4.3884,-4.4014,-4.3971,-4.4022,-4.4103,-4.4145,-4.4161,-4.4175,-4.4221,-4.4238,-4.4032,-4.4032,-4.4032,0,-4.3876,-4.3921,-4.3879,-4.3919,-4.3928,-4.3866,-4.3918,-4.392,-4.3924,-4.3932,-4.3895,-4.3946,-4.394,-4.4008,-4.404,-4.4047,-4.4061,-4.4022,-4.4162,-4.4176,-4.4188,-4.4231,-4.4249,-4.4038,-4.4037,-4.4037,-4.4036,0,-4.4013,-4.4045,-4.4088,-4.4093,-4.4107,-4.4154,-4.4121,-4.414,-4.4111,-4.4093,-4.4146,-4.4138,-4.4155,-4.417,-4.4141,-4.4234,-4.4213,-4.417,-4.4103,-4.4214,-4.4254,-4.427,-4.4047,-4.4045,-4.4043,-4.4041,0,0,-4.4194,-4.4179,-4.4195,-4.4198,-4.4192,-4.4216,-4.4261,-4.4278,-4.4296,-4.4303,-4.4339,-4.4377,-4.4337,-4.4344,-4.4316,-4.4353,-4.4457,-4.4305,-4.4304,-4.4332,-4.4559,-4.459,-4.461,-4.443,-4.4433,-4.4435,-4.4559,0,-4.4314,-4.4388,-4.4354,-4.4432,-4.4462,-4.4405,-4.4444,-4.4446,-4.4432,-4.4455,-4.444,-4.4467,-4.4414,-4.4418,-4.4452,-4.4437,-4.4501,-4.4428,-4.4463,-4.4464,-4.4462,-4.4631,-4.4663,-4.478,-4.4574,-4.4577,-4.4579,0,-4.4462,-4.4475,-4.4557,-4.4547,-4.4558,-4.4594,-4.4608,-4.4632,-4.4633,-4.4621,-4.4631,-4.4594,-4.4639,-4.4575,-4.4636,-4.4587,-4.46,-4.4595,-4.4599,-4.4598,-4.4526,-4.4633,-4.4816,-4.4833,-4.4603,-4.4601,-4.4599,0,-4.4585,-4.4623,-4.4677,-4.4681,-4.4672,-4.4698,-4.4696,-4.4694,-4.4707,-4.4721,-4.4729,-4.4748,-4.4758,-4.4774,-4.4744,-4.47,-4.481,-4.4743,-4.48,-4.4801,-4.4823,-4.4821,-4.5009,-4.4835,-4.4835,-4.4835,-4.4834,0,-4.4721,-4.4773,-4.4732,-4.4765,-4.4822,-4.4784,-4.4842,-4.4833,-4.4833,-4.4864,-4.4817,-4.4847,-4.4807,-4.4834,-4.4812,-4.4866,-4.4871,-4.4862,-4.4855,-4.4865,-4.4866,-4.4871,-4.4862,-4.4839,-4.4838,-4.4837,-4.4837,0,-4.4866,-4.4841,-4.4896,-4.4883,-4.4882,-4.4924,-4.4914,-4.4945,-4.4929,-4.4969,-4.4976,-4.4952,-4.4981,-4.4954,-4.4983,-4.4968,-4.5039,-4.5022,-4.5039,-4.5033,-4.5091,-4.5086,-4.5286,-4.5311,-4.5124,-4.5126,-4.5127,0,-4.4952,-4.4991,-4.4984,-4.5001,-4.5002,-4.5031,-4.5045,-4.501,-4.5027,-4.5033,-4.5064,-4.509,-4.5108,-4.5158,-4.5143,-4.5165,-4.5146,-4.5216,-4.5149,-4.5159,-4.5146,-4.5143,-4.5147,-4.5228,-4.523,-4.5232,-4.5234,0,-4.5109,-4.5096,-4.5118,-4.5136,-4.5155,-4.5168,-4.5177,-4.5194,-4.5159,-4.5181,-4.5211,-4.5225,-4.5255,-4.5281,-4.5299,-4.5297,-4.526,-4.5255,-4.5269,-4.5278,-4.5286,-4.5282,-4.5073,-4.525,-4.5248,-4.5247,-4.5246,-4.5245,-4.5227,-4.5259,-4.5259,-4.5286,-4.529,-4.53,-4.5329,-4.5318,-4.5342,-4.5363,-4.5342,-4.5379,-4.5382,-4.5402,-4.5405,-4.5434,-4.5405,-4.5426,-4.5431,-4.5436,-4.5444,-4.5284,-4.5437,-4.5437,-4.5436,-4.5436,-4.5436,0,-4.538,-4.5378,-4.5403,-4.5418,-4.544,-4.5405,-4.5414,-4.5434,-4.5467,-4.5473,-4.5493,-4.5529,-4.5555,-4.5544,-4.5567,-4.5592,-4.5576,-4.56,-4.5596,-4.5596,-4.5469,-4.5453,-4.5612,-4.5612,-4.5612,-4.5612,-4.5612,-4.5612,-4.5462,-4.5514,-4.5502,-4.5557,-4.5555,-4.5591,-4.5599,-4.5609,-4.5614,-4.5656,-4.5678,-4.567,-4.567,-4.5693,-4.5717,-4.5713,-4.5723,-4.5752,-4.5742,-4.5623,-4.5605,-4.5588,-4.5574,-4.5755,-4.5756,-4.5867,-4.5868,-4.5869]},{"header":{"parameterUnit":"m.s-1","parameterCategory":1,"la1":30.2991,"la2":30.254,"lo1":-89.0895,"lo2":-89.0444,"dy":0.0017,"dx":0.0017,"nx":28,"ny":28,"refTime":"2024-03-29T03:00:00:Z","depth":0,"parameterNumber":3,"parameterNumberName":"V-component_of_WINDS"},"data":[0,0,0,0,0,0,0,0,0,0,0,0,0,0,0,0,0,0,0,0,0,0,0,0,0,0,0,0,0,0,0,0,0,0,0,0,0,0,0,0,0,0,0,0,0,0,0,0,0,0,0,0,0,0,0,0,0,0,2.8796,2.8796,0,2.8795,2.8795,2.8795,2.8833,2.8834,2.8835,2.8836,2.8829,2.8828,2.8827,0,0,0,0,0,0,0,0,0,0,0,0,0,2.8829,2.8828,2.8796,2.8796,2.8796,2.8795,2.8795,2.8795,2.8833,2.8834,2.8836,2.8837,2.883,2.8828,2.8827,0,0,0,0,0,0,0,0,0,0,0,0,0,2.8819,2.8827,2.8796,2.8815,2.8817,2.8795,2.8795,2.8795,2.8833,2.8834,2.8836,2.8837,2.883,2.8829,2.8827,2.8785,0,0,2.8822,2.8821,0,0,0,0,0,0,0,0,2.882,2.8818,2.8812,2.8814,2.8816,2.8816,2.8804,2.8791,2.8832,2.8827,2.8836,2.8838,2.8823,2.8822,2.8818,2.8784,2.8784,2.8821,2.882,2.882,2.8819,0,0,0,0,0,0,0,2.882,2.8818,2.8796,2.8812,2.8814,2.8823,2.8823,2.8802,2.8816,2.8827,2.883,2.883,2.8824,2.882,2.8818,2.8784,2.8821,2.882,2.8819,2.8818,2.8717,2.8715,0,0,0,0,0,0,2.8819,2.8819,2.8796,2.8795,2.8822,2.8821,2.8821,2.8814,2.8816,2.8818,2.8828,2.8831,2.8822,2.882,2.8818,2.877,2.882,2.8818,2.8817,2.8719,2.8717,2.8715,0,0,0,0,0,0,2.882,2.8817,2.8796,2.8808,2.8806,2.8819,2.881,2.8813,2.8809,2.8817,2.882,2.8821,2.8823,2.8821,2.8794,2.877,2.8817,2.8816,2.872,2.8718,2.8716,2.8672,0,0,0,0,0,0,2.882,2.8817,2.8801,2.8807,2.8805,2.8772,2.8809,2.8812,2.8806,2.8811,2.8811,2.8813,2.8824,2.8796,2.8792,2.8769,2.8814,2.8723,2.8719,2.8716,2.8675,2.8668,2.8662,0,0,0,0,0,2.8821,2.8787,2.88,2.8797,2.8787,2.877,2.8769,2.8784,2.8804,2.8789,2.8795,2.8813,2.8774,2.8793,2.8788,2.8764,2.8724,2.872,2.8717,2.8678,2.867,2.8662,0,0,0,0,0,0,2.8776,2.8788,2.8803,2.877,2.8769,2.8777,2.8757,2.8774,2.8766,2.877,2.8788,2.8788,2.8757,2.8758,2.8779,2.8725,2.8752,2.8748,2.8725,2.8716,2.871,2.871,2.8813,0,0,0,0,0,2.8762,2.875,2.8761,2.8731,2.873,2.8744,2.8737,2.875,2.8748,2.8747,2.8751,2.8748,2.8735,2.8726,2.8715,2.8677,2.8677,2.8658,2.8651,2.8646,2.8641,2.8622,2.8613,2.8703,2.8703,2.8703,0,0,2.8733,2.8739,2.8729,2.8722,2.8723,2.8708,2.8743,2.8725,2.8714,2.8744,2.8719,2.8722,2.872,2.8687,2.8673,2.8687,2.8617,2.8641,2.8637,2.8635,2.8617,2.8609,2.8601,2.87,2.8701,2.8701,0,0,2.8673,2.8677,2.8653,2.8653,2.8655,2.8665,2.8659,2.8665,2.8669,2.8645,2.8667,2.8654,2.8631,2.8629,2.8625,2.8568,2.8584,2.8563,2.8527,2.8509,2.8502,2.8495,2.8475,2.8467,2.8559,2.8559,2.8559,0,2.8637,2.8617,2.8637,2.8619,2.8615,2.8645,2.862,2.862,2.8616,2.8612,2.8629,2.8603,2.8603,2.8571,2.8558,2.8553,2.8547,2.8562,2.8501,2.8495,2.849,2.847,2.8462,2.8556,2.8556,2.8557,2.8557,0,2.8572,2.8558,2.8538,2.8537,2.8531,2.851,2.8526,2.8518,2.8531,2.8539,2.8515,2.8517,2.8507,2.8501,2.8513,2.8471,2.848,2.8498,2.8526,2.8478,2.846,2.8453,2.8552,2.8553,2.8554,2.8555,0,0,2.848,2.8494,2.8486,2.8486,2.8492,2.848,2.8461,2.8454,2.8446,2.8443,2.8427,2.8409,2.8427,2.8422,2.8435,2.8418,2.8373,2.8439,2.8439,2.8426,2.8327,2.8312,2.8303,2.8385,2.8384,2.8382,2.8327,0,2.8422,2.8391,2.841,2.8375,2.8362,2.8391,2.8374,2.8375,2.8382,2.8372,2.838,2.8367,2.8392,2.839,2.8375,2.8381,2.8353,2.8386,2.8368,2.8367,2.8367,2.8294,2.8277,2.8225,2.832,2.8319,2.8318,0,2.8349,2.8346,2.8311,2.832,2.8316,2.83,2.8296,2.8286,2.8288,2.8295,2.8291,2.8308,2.8289,2.8318,2.8292,2.8314,2.8308,2.8311,2.8309,2.8307,2.8339,2.8289,2.8208,2.82,2.8307,2.8308,2.8309,0,2.8286,2.8273,2.8251,2.825,2.8261,2.8249,2.8253,2.8256,2.8251,2.8247,2.8244,2.8237,2.8233,2.8227,2.8242,2.8262,2.8213,2.8244,2.8218,2.8217,2.8204,2.8205,2.8121,2.8202,2.8202,2.8203,2.8203,0,2.8218,2.8195,2.8223,2.8208,2.8184,2.8206,2.8181,2.8187,2.8191,2.8178,2.8202,2.8189,2.821,2.8199,2.8211,2.8187,2.8185,2.8189,2.8192,2.8187,2.8186,2.8182,2.8186,2.8201,2.8201,2.8201,2.8202,0,2.8143,2.816,2.8138,2.8151,2.8153,2.8134,2.8145,2.8132,2.8143,2.8126,2.8124,2.8139,2.8128,2.8143,2.8132,2.814,2.8108,2.8117,2.8108,2.811,2.8083,2.8085,2.7993,2.7982,2.8071,2.807,2.8069,0,2.8098,2.8081,2.8093,2.8088,2.8091,2.808,2.8077,2.8098,2.8093,2.8095,2.8082,2.8073,2.8067,2.8048,2.8057,2.805,2.8058,2.8027,2.8057,2.8052,2.8057,2.8058,2.8056,2.802,2.8019,2.8018,2.8017,0,2.8016,2.8027,2.8021,2.8018,2.8013,2.8012,2.8012,2.8006,2.8029,2.8021,2.8011,2.8007,2.7998,2.7989,2.7984,2.7987,2.8005,2.8008,2.8002,2.7995,2.799,2.7992,2.809,2.801,2.801,2.8011,2.8011,2.8012,2.7954,2.7942,2.7949,2.7942,2.7945,2.7945,2.7934,2.7945,2.7937,2.7933,2.7946,2.7933,2.7937,2.7933,2.7934,2.7924,2.7937,2.7928,2.7925,2.7922,2.7918,2.7993,2.7923,2.7923,2.7923,2.7924,2.7924,0,2.7874,2.7881,2.7875,2.7876,2.787,2.7891,2.7893,2.7886,2.7875,2.7878,2.7873,2.7862,2.7854,2.7864,2.7858,2.7848,2.7856,2.7845,2.7845,2.7846,2.7906,2.7912,2.7839,2.7839,2.7839,2.7839,2.7839,2.7839,2.7832,2.7811,2.7823,2.7804,2.7811,2.78,2.78,2.78,2.7802,2.779,2.7784,2.7792,2.7798,2.7792,2.7786,2.7789,2.7785,2.7771,2.7777,2.7833,2.7841,2.7849,2.7855,2.777,2.777,2.7718,2.7717,2.7717]}]]